Regional Weather Roundup
Issued by NWS Sterling, VA

Home | Current Version | Previous Version | Graphics & Text | Print | Product List | Glossary On
Versions: 1 2 3 4 5 6 7 8 9 10 11 12 13 14 15 16 17 18 19 20 21 22 23 24 25 26 27
000
ASUS41 KLWX 251111
RWRLWX

REGIONAL WEATHER ROUNDUP
NATIONAL WEATHER SERVICE BALTIMORE MD/WASHINGTON DC
700 AM EDT MON JUL 25 2016

Note: "FAIR" indicates few or no clouds below 12,000 feet
with no significant weather and/or obstructions to visibility.
 TC=TEMPERATURE CELSIUS

 * =Non NWS site. Station does not report precipitation (e.g. rain,
    snow, etc.), thunder, or fog.

DCZ001-MDZ009-015-VAZ040>042-051-053>054-251200-
WASHINGTON METRO

CITY           SKY/WX    TMP DP  RH WIND       PRES   REMARKS
WASHINGTON NAT MOCLDY    83  77  82 SW3       29.97R HX  92
DULLES         MOCLDY    76  73  91 CALM      29.98R
ANDREWS AFB    CLOUDY    80  77  91 SW5       29.97R
FT BELVOIR     FAIR      77  75  94 CALM      29.97R
QUANTICO       MOCLDY    80  76  87 W6        29.98R
COLLEGE PARK*  FAIR      73  72  94 CALM      29.97R
LEESBURG*      FAIR      79  75  89 S8        29.99R
MANASSAS*      CLEAR     75  75 100 S3        29.98R
GAITHERSBURG*  CLEAR     73  70  88 CALM      30.02S

$$

MDZ006>007-011-014-251200-
BALTIMORE METRO

CITY           SKY/WX    TMP DP  RH WIND       PRES   REMARKS
BWI AIRPORT    MOCLDY    79  74  84 W3        29.96R
MD SCIENCE CTR   N/A     83  74  74 MISG      29.96R
MARTIN STATE   MOCLDY    79  79 100 CALM      29.97S
ANNAPOLIS      PTCLDY    80  75  84 SW6       29.96R
FORT MEADE*      N/A     72  72 100 CALM      29.99R

$$

MDZ012-015-019>023-251200-
MARYLAND EASTERN SHORE

CITY           SKY/WX    TMP DP  RH WIND       PRES   REMARKS
OCEAN CITY     CLOUDY    81  77  88 SW8       29.97R
SALISBURY      MOSUNNY   80  76  87 SW7       29.97S
BAY BRIDGE AP* PTCLDY    81  77  89 CALM      29.96S
CAMBRIDGE*     CLOUDY    77  75  94 CALM      29.96S
EASTON*        PTSUNNY   77  77 100 CALM      30.00R

$$

MDZ017>025-251200-
SOUTHERN MARYLAND

CITY           SKY/WX    TMP DP  RH WIND       PRES   REMARKS
PATUXENT RIVER MOCLDY    81  74  79 SW6       29.97R
ST INIGOES     CLEAR     83  75  77 SW7       29.97R HX  90
LEONARDTOWN*   PTCLDY    81  72  74 CALM      29.99S

$$

MDZ003>005-251200-
NORTH CENTRAL MARYLAND

CITY           SKY/WX    TMP DP  RH WIND       PRES   REMARKS
FREDERICK*     CLEAR     73  73 100 CALM      30.00S
HAGERSTOWN APT CLEAR     75  72  90 SE3       29.99S

$$

MDZ501>502-251200-
WESTERN MARYLAND

CITY           SKY/WX    TMP DP  RH WIND       PRES   REMARKS
OAKLAND*       CLOUDY    70  68  94 SW7       30.14S
CUMBERLAND*    CLOUDY    73  73 100 CALM      30.05S

$$

VAZ025>031-251200-
SHENANDOAH VALLEY

CITY           SKY/WX    TMP DP  RH WIND       PRES   REMARKS
WINCHESTER*    FAIR      77  72  83 CALM      30.00S
FRONT ROYAL*   FAIR      73  72  94 CALM      30.00S
LURAY*         FAIR     N/A N/A N/A CALM      30.03R HAZE
NEW MARKET*    FAIR     N/A N/A N/A CALM      30.02S
STAUNTON*      FAIR      69  68  97 CALM      30.07S FOG
WAYNESBORO*    FAIR      69  68  96 CALM      30.07R

$$

WVZ021-048>050-054>055-251200-
EASTERN WEST VIRGINIA PANHANDLE

CITY           SKY/WX    TMP DP  RH WIND       PRES   REMARKS
MARTINSBURG    FAIR      73  71  93 E3        29.99R
PETERSBURG*    FAIR      73  72  97 CALM      30.03R FOG

$$

VAZ036>039-050-251200-
CENTRAL FOOTHILLS

CITY           SKY/WX    TMP DP  RH WIND       PRES   REMARKS
CHARLOTTESVILL FAIR      78  72  81 S5        30.00R
CULPEPER*      FAIR      76  75  99 CALM      29.99R
ORANGE*          N/A     73  73 100 CALM      30.01R FOG
GORDONSVILLE*  FAIR      74  73  99 MISG      29.99R
WARRENTON*     FAIR      76  71  84 CALM      29.98R HAZE

$$

VAZ055>057-251200-
NORTH AND CENTRAL PIEDMONT

CITY           SKY/WX    TMP DP  RH WIND       PRES   REMARKS
FREDERICKSBRG* FAIR      77  77 100 CALM      29.97S
STAFFORD*      FAIR      76  73  92 CALM      30.02R FOG

$$

NCZ024-NYZ072-PAZ021-071-VAZ022-071-251200-
OTHER REGIONAL OBSERVATIONS

CITY           SKY/WX    TMP DP  RH WIND       PRES   REMARKS
NEW YORK CITY  CLOUDY    79  67  66 SW8G22    29.98R
PHILADELPHIA   CLOUDY    75  72  90 SE7       29.96S
PITTSBURGH     CLOUDY    76  70  82 SW8       29.99F
ROANOKE        FAIR      73  69  87 NW6       30.08R
RICHMOND       FAIR      75  73  93 S5        30.00R
RALEIGH        PTCLDY    78  75  90 SW7       30.05S

$$

ANZ530>537-251200-
MARINE OBSERVATIONS

STATION/POSITION TIME  TEMP    WIND        PRES
                       AIR SEA DIR/SP/G
                 (UTC) (F)     (DEG/KT/KT) (MB)
THOMAS PT LIGHT  1100   80 83  220/  7/  7 1016.0R
BALT KEY BRIDGE  1048   80     210/  2/  3 1014.3R
COVE POINT       1048   83     250/ 10/ 13 1015.2R
LEWISETTA        1048   81 87  250/  6/  7 1014.9R
SOLOMONS ISLAND  1048   83 85  260/  5/  5   N/A
PINEY POINT      1048          260/  4/  5   N/A

$$





USA.gov is the U.S. government's official web portal to all federal, state and local government web resources and services.